DW6761 Weather Reports


Display with metric or nautical units.
time (UTC)temp
F
wind
direction
speed
MPH
gust
MPH
rain 1hr
in
rain 24hr
in
rain mn
in
humidity
%
barometer
mb
20260507071610 0 0.0 0.0 0.00 0.00 0.00 1021.3
20260507070036 0 0.0 0.0 0.00 0.00 0.00 1021.2
20260507064627 0 0.0 0.0 0.00 0.00 0.00 1021.1
20260507063018 0 0.0 0.0 0.00 0.00 0.00 1020.8
20260507061517 0 0.0 0.0 0.00 0.00 0.00 1020.6
20260507060017 0 0.0 0.0 0.00 0.00 0.00 1020.6
20260507054639 0 0.0 0.0 0.00 0.00 0.00 1020.4
20260507053015 0 0.0 0.0 0.00 0.00 0.00 1019.9
20260507051555 0 0.0 0.0 0.00 0.00 0.00 1019.8
20260507050007 45 127 1.0 0.0 0.00 0.00 0.00 97 1019.7
20260507044550 45 131 1.0 0.0 0.00 0.00 0.00 97 1019.5
20260507043025 45 132 0.0 0.0 0.00 0.00 0.00 97 1019.5
20260507041521 45 134 0.0 0.0 0.00 0.00 0.00 97 1019.3
20260507040135 45 119 1.0 0.0 0.00 0.00 0.00 97 1019.2
20260507034530 45 125 1.0 0.0 0.00 0.00 0.00 97 1019.1
20260507033029 45 142 0.0 0.0 0.00 0.00 0.00 97 1018.9
20260507031535 45 113 0.0 0.0 0.00 0.00 0.00 97 1019.0
20260507030057 45 135 0.0 0.0 0.00 0.00 0.00 97 1018.9
20260507024620 46 148 1.0 0.0 0.00 0.00 0.00 97 1018.8
20260507023133 46 122 0.0 0.0 0.00 0.00 0.00 97 1018.7
20260507021628 46 122 1.0 0.0 0.00 0.00 0.00 97 1018.6
20260507020053 46 137 0.0 0.0 0.00 0.00 0.00 97 1018.5
20260507014514 46 136 0.0 0.0 0.00 0.00 0.00 97 1018.4
20260507013039 46 174 0.0 0.0 0.00 0.00 0.00 97 1018.4
20260507011623 46 118 0.0 0.0 0.00 0.00 0.00 97 1018.1
20260507010041 46 168 0.0 0.0 0.00 0.00 0.00 97 1018.1
20260507004520 45 110 0.0 0.0 0.00 0.00 0.00 97 1018.1
20260507003036 45 159 0.0 0.0 0.00 0.00 0.00 97 1018.1
20260507001625 45 122 1.0 0.0 0.00 0.00 0.00 97 1018.0
20260507000109 46 127 0.0 0.0 0.00 0.00 0.00 97 1017.9
20260506234538 45 96 1.0 0.0 0.00 0.00 0.00 97 1017.9
20260506233017 46 144 1.0 0.0 0.00 0.00 0.00 97 1017.9
20260506231518 46 126 0.0 0.0 0.00 0.00 0.00 97 1017.7
20260506230030 46 142 1.0 0.0 0.00 0.00 0.00 97 1017.6
20260506224559 46 138 1.0 0.0 0.00 0.00 0.00 97 1017.6
20260506223146 46 145 0.0 0.0 0.00 0.00 0.00 97 1017.4
20260506221641 46 136 0.0 0.0 0.00 0.00 0.00 97 1017.5
20260506220026 46 126 0.0 0.0 0.00 0.00 0.00 97 1017.4
20260506214609 46 138 0.0 0.0 0.00 0.00 0.00 97 1017.5
20260506213029 46 111 1.0 0.0 0.00 0.00 0.00 97 1017.4
20260506211527 46 155 0.0 0.0 0.00 0.00 0.00 97 1017.3
20260506210008 46 146 0.0 0.0 0.00 0.00 0.00 97 1017.2
20260506204534 46 132 0.0 0.0 0.00 0.00 0.00 97 1017.1
20260506203029 46 132 0.0 0.0 0.00 0.00 0.00 97 1017.0
20260506201531 46 144 0.0 0.0 0.00 0.00 0.00 97 1016.9
20260506200026 46 153 0.0 0.0 0.00 0.00 0.00 97 1016.8
20260506194539 46 187 0.0 0.0 0.00 0.00 0.00 97 1016.8
20260506193144 46 124 1.0 0.0 0.00 0.00 0.00 97 1016.7
20260506191610 47 135 0.0 0.0 0.00 0.00 0.00 97 1016.6
20260506190030 47 125 0.0 0.0 0.00 0.00 0.00 97 1016.3
20260506184530 47 144 0.0 0.0 0.00 0.00 0.00 97 1016.2
20260506183115 47 123 0.0 0.0 0.00 0.00 0.00 97 1016.0
20260506181537 47 128 0.0 0.0 0.00 0.00 0.00 97 1015.9
20260506180025 47 182 0.0 0.0 0.00 0.00 0.00 97 1015.7
20260506174526 47 156 0.0 0.0 0.00 0.00 0.00 97 1015.6
20260506173032 47 207 0.0 0.0 0.00 0.00 0.00 97 1015.5
20260506171505 47 155 0.0 0.0 0.00 0.00 0.00 97 1015.4
20260506170007 47 181 0.0 0.0 0.00 0.00 0.00 97 1015.3
20260506164504 47 142 0.0 0.0 0.00 0.00 0.00 97 1015.3
20260506163039 47 138 0.0 0.0 0.00 0.00 0.00 97 1015.2
20260506161638 47 127 0.0 0.0 0.00 0.00 0.00 97 1015.1
20260506160110 47 118 0.0 0.0 0.00 0.00 0.00 97 1015.0
20260506154525 47 126 0.0 0.0 0.00 0.00 0.00 97 1015.1
20260506153033 47 118 0.0 0.0 0.00 0.00 0.00 97 1015.0
20260506151525 47 122 0.0 0.0 0.00 0.00 0.00 97 1015.1
20260506150025 47 145 0.0 0.0 0.00 0.00 0.00 97 1015.0
20260506144528 47 138 0.0 0.0 0.00 0.00 0.00 97 1014.8
20260506143017 47 112 1.0 0.0 0.00 0.00 0.00 97 1014.7
20260506141521 47 116 0.0 0.0 0.00 0.00 0.00 97 1014.7
20260506140043 47 136 1.0 0.0 0.00 0.00 0.00 97 1014.7
20260506134548 48 117 0.0 0.0 0.00 0.00 0.00 97 1014.5
20260506133052 47 140 0.0 0.0 0.00 0.00 0.00 96 1014.6
20260506131553 47 115 0.0 0.0 0.00 0.00 0.00 97 1014.5
20260506130045 47 127 0.0 0.0 0.00 0.00 0.00 97 1014.5
20260506124517 47 123 0.0 0.0 0.00 0.00 0.00 97 1014.4
20260506123056 47 115 0.0 0.0 0.00 0.00 0.00 97 1014.3
20260506121523 47 90 0.0 0.0 0.00 0.00 0.00 97 1014.1
20260506120106 47 169 1.0 0.0 0.00 0.00 0.00 96 1014.0
20260506114647 48 117 1.0 0.0 0.00 0.00 0.00 96 1013.8
20260506113004 48 144 0.0 0.0 0.00 0.00 0.00 97 1013.7
20260506111554 48 111 0.0 0.0 0.00 0.00 0.00 96 1013.8
20260506110057 48 126 0.0 0.0 0.00 0.00 0.00 96 1013.7
20260506104637 48 114 1.0 0.0 0.00 0.00 0.00 96 1013.7
20260506103129 48 120 1.0 0.0 0.00 0.00 0.00 97 1013.6
20260506101528 48 136 1.0 0.0 0.00 0.00 0.00 96 1013.4
20260506100126 49 134 1.0 0.0 0.00 0.00 0.00 96 1013.4
20260506094533 49 119 0.0 0.0 0.00 0.00 0.00 96 1013.2
20260506093027 50 121 0.0 0.0 0.00 0.00 0.00 97 1012.9
20260506091613 50 136 0.0 0.0 0.00 0.00 0.00 97 1012.9
20260506090127 50 132 0.0 0.0 0.00 0.00 0.00 97 1012.6
20260506084547 50 149 1.0 0.0 0.00 0.00 0.00 96 1012.5
20260506083018 50 140 1.0 0.0 0.00 0.00 0.00 96 1012.5
20260506081523 50 131 1.0 0.0 0.00 0.00 0.00 96 1012.4
20260506073113 51 159 0.0 0.0 0.00 0.00 0.00 97 1012.2